Temperature
18 17 17 17 17 17 17 17 17 17 17 17 17 17 17 18 18 17 18 18 18 18 17 17 17 17 17 17 17 17 17 17 17 17 16 16 16 16 16 16 16 16 16
18 17 18 18 18 18 17 17 17 17 17 17 17 17 17 17 17 17 17 18 18 18 18 17 17 17 17 17 17 17 17 17 17 17 16 16 16 16 16 16 16 16 16
18 18 18 18 18 18 18 18 17 17 18 18 17 17 17 17 17 17 17 17 17 18 18 18 17 17 17 17 17 17 17 16 16 16 16 16 16 16 16 16 16 16 16
18 18 18 18 18 18 17 17 17 18 18 18 18 18 18 18 17 17 17 17 17 17 17 17 17 17 17 17 17 17 17 17 17 16 16 16 16 16 16 16 16 16 16
18 18 18 18 18 17 18 18 18 18 18 18 18 18 18 18 17 17 17 17 17 17 17 17 17 17 17 17 17 17 17 17 16 16 16 16 16 16 16 16 16 16 16
18 18 18 18 18 17 18 17 17 17 18 18 18 18 17 17 17 17 17 17 17 17 17 17 17 17 17 17 17 17 17 16 16 16 16 16 16 16 16 16 16 15 15
18 18 18 18 17 17 18 17 17 17 17 17 17 18 18 17 17 17 17 17 17 17 17 17 17 17 17 17 17 17 16 16 16 16 16 16 16 16 16 15 15 15 15
18 18 18 17 17 18 17 17 17 17 17 17 17 18 18 18 17 17 17 17 17 17 16 16 16 16 16 16 16 16 16 16 16 16 16 16 16 16 15 15 15 15 15
18 18 18 18 18 17 17 17 17 17 17 17 17 18 18 18 17 17 17 16 16 16 16 16 16 16 16 16 16 16 16 16 16 16 16 15 15 15 15 15 15 15 15
18 18 18 18 18 17 17 17 17 17 17 17 17 17 17 17 17 17 16 16 16 16 16 16 16 15 15 15 15 15 15 16 16 15 15 15 15 15 15 15 15 14 14
18 18 18 18 18 18 18 17 17 17 17 17 17 17 17 17 17 17 16 16 16 16 15 15 15 15 15 15 15 15 15 15 15 15 15 15 15 15 15 14 14 14 14
18 18 18 18 18 17 17 17 17 17 17 17 17 17 17 17 17 17 16 16 15 15 15 15 15 14 14 14 14 14 15 15 15 15 14 14 14 14 14 14 14 14 14
18 18 18 18 18 18 17 17 17 17 17 17 17 17 17 17 17 16 16 16 15 15 14 14 14 14 14 14 14 14 14 14 14 14 14 14 14 14 14 14 14 13 13
18 18 17 17 17 17 17 17 17 17 17 17 17 17 16 16 16 16 16 16 15 15 14 14 14 14 13 13 13 13 13 13 13 13 14 14 13 13 13 13 13 13 13
17 17 17 17 17 17 17 17 17 17 16 16 16 16 16 16 16 16 16 16 16 15 14 13 13 13 13 13 13 13 13 13 13 13 13 13 13 13 13 13 13 12 12
18 17 17 17 17 17 17 17 16 16 16 16 16 16 16 16 16 16 16 15 15 15 14 13 13 13 13 13 12 12 12 12 13 13 13 12 12 12 12 12 12 12 12
18 17 17 17 17 16 16 16 16 16 16 16 16 16 16 16 15 15 15 15 15 15 14 13 13 13 12 12 12 12 12 12 12 12 12 12 12 12 12 12 11 11 11
17 17 17 17 16 16 16 16 16 16 16 15 15 15 15 15 15 15 15 15 14 14 14 13 13 12 12 12 12 12 12 11 11 11 11 11 11 11 11 11 11 11 11
17 17 17 16 16 16 16 16 15 15 15 15 15 15 15 15 15 14 14 14 14 14 14 13 13 12 12 12 12 12 11 11 11 11 11 11 11 10 10 10 10 10 10
17 17 16 16 16 16 15 15 15 15 15 15 15 15 15 14 14 14 14 14 14 13 13 13 13 12 12 12 12 12 11 11 11 10 10 10 10 10 10 10 10 9 9
17 17 16 16 16 15 15 15 15 15 15 15 15 14 14 14 14 14 14 13 13 13 13 13 13 12 12 12 11 11 11 11 10 10 10 10 10 9 9 9 9 9 9
17 16 16 15 15 15 16 16 15 15 14 14 14 14 14 14 14 14 14 13 13 13 13 13 13 12 12 12 11 11 11 11 10 10 10 10 10 9 9 9 9 9 9
16 16 16 16 16 16 15 15 15 15 14 14 14 13 14 13 13 13 13 13 13 13 13 12 12 12 12 11 11 11 11 11 10 10 10 10 10 9 9 9 9 8 8
16 16 16 15 15 15 15 15 15 14 14 14 13 13 13 13 13 13 13 12 12 12 12 12 11 11 11 11 11 11 10 10 10 10 10 10 9 9 9 9 8 8 8
16 16 15 15 15 15 15 15 14 13 14 13 13 13 13 13 13 13 12 12 12 12 12 12 11 11 11 11 11 11 11 11 11 10 10 10 10 9 9 9 8 8 8
16 15 15 15 15 15 15 14 14 13 13 13 13 13 13 13 13 12 12 12 11 11 11 11 11 11 11 10 10 10 10 11 11 10 9 10 10 10 9 9 9 8 8
Wind_Speed
1 2 1 1 1 1 2 2 1 1 2 2 2 2 2 2 2 3 4 8 7 8 8 9 9 9 10 11 11 11 12 12 12 12 12 12 11 11 10 10 11 11 11
1 1 1 1 1 0 0 1 2 2 2 1 1 2 2 2 2 3 4 6 8 8 8 9 10 10 11 12 12 12 12 13 13 13 13 13 12 12 12 12 12 12 12
1 1 1 1 1 1 1 2 2 2 2 2 2 2 2 2 2 3 4 3 5 8 8 8 9 11 12 12 13 13 13 13 13 14 14 14 14 14 13 13 12 12 12
1 1 1 0 1 2 2 1 2 2 2 2 2 2 2 2 3 3 3 3 3 3 6 7 6 8 10 11 12 12 13 14 14 15 15 15 15 15 14 13 13 13 13
1 1 0 0 2 2 2 2 1 2 2 2 2 2 2 2 2 2 2 2 2 2 2 5 6 6 7 8 9 10 11 12 13 14 15 16 16 16 15 15 14 14 14
0 1 1 1 2 2 2 1 2 2 2 2 2 1 1 1 1 1 2 1 1 1 1 1 3 4 5 5 5 6 8 8 9 10 11 12 13 14 14 14 14 13 12
1 1 1 1 2 2 2 2 2 2 2 2 2 1 1 1 0 0 1 0 0 1 1 0 1 1 2 4 3 4 5 7 8 9 10 10 11 11 12 12 11 10 11
1 0 1 2 1 1 1 1 2 2 2 2 2 2 2 2 1 1 1 0 0 1 1 1 1 1 1 1 2 1 3 3 4 6 7 8 10 11 11 11 11 11 11
2 2 1 2 2 2 1 2 2 3 3 2 2 2 2 1 1 1 2 1 1 1 1 2 2 2 2 2 3 2 1 1 1 2 3 5 5 7 9 9 10 10 10
1 1 2 2 3 2 2 3 1 3 3 3 2 3 3 1 2 1 1 2 2 2 2 2 2 3 3 3 4 6 5 3 2 1 1 1 3 4 6 8 8 7 8
1 2 2 2 3 3 3 3 3 3 3 3 3 2 2 2 3 2 1 1 1 2 2 2 3 4 4 4 4 6 7 7 5 3 3 3 2 1 2 3 4 4 4
0 1 2 2 2 3 3 3 3 3 3 3 3 3 3 2 2 2 2 2 1 2 3 4 4 4 4 5 7 9 9 9 8 7 6 6 6 6 4 3 3 2 1
1 1 2 2 3 3 3 3 2 3 3 3 3 3 3 3 2 2 3 2 1 1 2 4 4 5 5 6 8 10 12 11 11 11 11 10 10 10 9 7 6 5 4
2 2 2 2 3 3 3 2 2 2 2 2 2 2 2 1 1 1 2 2 2 1 2 3 3 5 6 7 8 9 11 13 13 13 13 12 12 12 11 11 10 9 8
0 1 2 2 2 3 3 3 2 3 2 2 2 2 1 1 0 0 1 2 2 2 2 2 2 4 5 8 8 9 10 14 14 14 14 14 14 13 13 13 12 12 11
1 1 2 2 2 3 3 3 2 3 3 3 2 3 2 1 1 1 0 1 1 2 2 2 3 3 5 6 8 9 10 14 15 14 14 14 14 14 14 14 14 13 13
1 1 2 2 2 3 3 4 4 4 4 4 3 3 3 2 1 1 1 1 2 3 5 3 4 4 4 5 5 6 8 9 12 13 13 14 14 14 14 14 13 13 13
2 2 2 2 3 3 3 3 4 4 4 4 4 4 3 2 2 2 2 2 3 3 5 6 4 3 4 4 5 4 6 7 10 13 13 14 14 13 13 13 13 13 13
3 3 3 3 3 3 3 3 4 4 4 4 4 4 3 3 2 2 2 3 3 4 5 6 5 3 3 3 4 5 5 5 7 11 12 12 12 13 13 12 12 13 12
4 3 3 3 3 3 3 3 4 4 4 4 4 4 4 4 3 2 3 3 4 5 5 5 5 5 4 3 3 4 4 4 4 5 7 8 10 11 12 12 12 11 11
4 4 3 3 3 2 3 3 3 3 4 4 4 4 5 6 7 5 3 3 3 3 4 5 5 4 4 3 2 2 4 4 4 3 3 4 6 6 8 10 10 10 10
4 4 3 3 3 3 6 5 3 3 3 4 4 4 5 5 6 7 7 7 5 3 3 3 4 4 3 3 2 2 3 3 3 2 2 3 3 4 5 7 8 8 8
5 4 4 3 4 5 5 4 3 3 4 4 4 3 4 5 4 4 6 7 7 6 3 1 3 3 4 3 2 3 3 2 2 2 1 2 2 3 4 7 9 6 6
5 4 4 4 4 4 4 3 1 3 4 4 4 4 4 4 3 2 4 6 6 5 4 3 3 2 3 2 2 2 3 3 3 3 1 1 2 2 3 6 9 7 5
5 4 4 4 4 4 3 1 3 4 4 4 4 4 4 4 4 3 4 5 6 5 7 7 5 5 5 3 1 2 3 3 3 3 1 1 1 1 2 3 8 9 8
5 5 5 4 4 4 4 1 4 3 3 4 4 4 5 4 3 3 3 4 4 4 4 5 6 6 6 6 4 1 1 1 2 2 2 1 1 1 1 2 3 6 7
Wind_Direction
119 112 98 92 144 144 168 176 189 188 213 207 210 206 223 223 216 210 160 162 186 203 208 208 206 206 207 212 214 215 216 216 215 213 212 214 216 215 216 215 212 211 212
122 149 151 126 161 187 313 213 206 210 216 212 219 214 234 245 235 229 214 178 188 203 215 217 215 214 215 215 218 221 221 224 223 221 219 220 220 220 221 221 220 219 220
124 170 153 178 164 172 193 223 231 229 218 207 221 235 232 239 232 231 237 220 195 193 204 215 219 219 220 219 221 223 222 224 225 222 221 223 223 223 223 226 229 227 226
168 226 190 200 215 230 221 214 233 229 234 237 233 249 241 217 232 230 225 218 219 202 187 194 214 223 223 221 222 225 227 227 227 226 225 227 230 230 228 230 233 234 233
190 230 224 349 246 244 251 262 230 250 240 244 234 227 243 238 234 229 213 209 201 212 203 174 190 212 220 225 226 228 230 229 227 228 228 230 232 232 230 231 233 235 235
120 284 210 244 264 257 260 275 270 262 256 250 263 278 278 255 239 215 219 196 194 211 219 200 196 200 203 222 239 239 237 235 230 226 225 225 228 226 224 227 230 231 232
28 293 303 231 268 264 275 261 257 234 238 238 245 232 207 211 154 171 243 244 126 51 15 2 274 265 178 190 218 246 245 240 236 232 227 228 227 224 223 222 223 224 229
356 311 292 275 286 276 256 270 263 274 254 240 258 254 225 187 142 102 123 159 47 80 70 45 16 357 333 97 102 206 246 248 246 236 230 231 231 226 222 222 224 226 229
9 358 353 322 322 305 323 295 275 271 271 259 255 268 266 238 128 128 82 71 58 67 67 58 52 56 52 55 47 64 135 196 242 251 247 235 225 226 222 221 223 226 229
0 350 348 343 329 324 331 293 285 270 265 261 241 246 270 281 235 178 131 99 81 61 36 22 39 59 52 60 60 45 61 68 69 57 304 249 226 227 218 218 224 228 232
3 346 342 341 330 326 335 324 316 290 272 270 263 252 248 236 240 234 220 137 85 72 63 42 37 50 56 67 71 60 64 66 66 64 64 53 51 189 198 212 217 222 222
349 348 331 333 325 329 325 314 305 294 298 291 281 268 258 257 243 221 210 186 132 76 64 49 39 43 52 63 67 66 67 66 65 64 67 66 63 67 80 85 84 93 136
340 6 343 335 334 334 325 319 311 313 304 293 281 274 268 265 257 221 191 178 148 105 69 54 39 44 55 67 70 76 70 70 71 71 71 70 67 66 63 63 60 56 58
3 2 347 347 348 342 338 336 324 328 331 311 303 299 288 294 238 190 189 180 172 135 85 74 51 47 59 67 70 79 74 74 74 74 74 73 71 69 66 64 61 59 59
341 18 1 356 360 3 353 339 9 354 356 347 356 5 351 30 14 246 186 203 217 185 123 99 84 61 72 72 66 75 76 75 77 77 76 75 74 72 70 69 66 63 64
13 10 8 13 13 12 11 5 33 30 28 35 29 33 20 36 45 46 107 183 225 171 139 108 89 81 79 88 83 83 86 87 79 79 79 78 76 74 72 70 68 66 66
88 50 37 41 41 34 30 34 40 41 43 46 41 51 50 37 45 79 94 109 111 125 131 118 105 99 97 90 88 88 93 91 88 84 83 80 76 74 72 71 70 69 67
109 90 76 63 56 50 44 48 45 44 43 43 43 48 45 60 67 60 84 102 104 112 133 130 123 111 99 95 94 91 91 91 95 94 91 84 78 75 74 72 70 69 68
118 104 93 81 65 60 59 59 57 53 49 46 43 43 43 54 62 74 77 93 106 114 123 132 130 116 108 106 109 106 101 97 101 113 109 98 89 83 79 75 73 72 71
129 117 107 97 86 75 70 66 66 62 56 52 44 44 44 51 63 87 100 104 111 121 131 134 131 129 123 125 131 126 119 108 93 95 94 103 110 103 92 83 78 76 75
133 122 117 111 105 97 69 60 75 74 65 60 56 55 58 56 44 42 64 94 117 130 137 137 134 130 125 133 137 139 123 122 116 105 117 119 125 112 105 96 83 75 77
132 130 125 115 96 73 57 30 18 80 70 66 64 68 89 84 82 73 63 64 66 107 127 137 133 139 143 144 149 155 136 134 125 120 131 116 112 102 102 91 91 87 83
142 139 135 122 104 87 76 59 27 82 81 70 65 56 64 82 95 105 114 119 89 74 76 133 132 137 145 147 168 166 147 138 102 114 151 113 115 113 116 106 115 109 101
147 145 139 131 122 108 100 93 333 114 93 83 76 73 73 74 63 78 108 103 99 90 83 103 113 124 123 138 177 164 149 146 144 126 148 138 120 123 120 127 140 141 137
151 153 146 143 138 129 118 140 276 131 115 101 88 76 78 88 45 12 115 114 110 110 100 96 93 107 112 122 145 165 156 168 148 135 139 241 141 151 151 148 156 167 169
159 159 147 152 150 140 131 177 277 163 135 129 117 105 75 77 65 17 121 121 116 108 109 120 128 143 144 143 158 186 196 196 175 158 144 237 188 209 182 163 162 171 183
Height
1556 1557 1556 1557 1558 1558 1558 1558 1559 1559 1560 1560 1561 1562 1563 1563 1564 1564 1564 1563 1564 1565 1565 1566 1566 1567 1567 1568 1569 1569 1570 1571 1571 1572 1573 1574 1574 1575 1576 1577 1578 1578 1579
1556 1557 1557 1557 1558 1558 1558 1559 1559 1559 1560 1560 1561 1561 1561 1562 1562 1563 1564 1563 1563 1563 1564 1564 1565 1565 1566 1566 1567 1567 1568 1569 1569 1570 1571 1572 1572 1573 1574 1575 1576 1576 1577
1556 1556 1557 1557 1557 1557 1557 1558 1558 1559 1559 1559 1560 1560 1560 1560 1561 1561 1562 1562 1562 1562 1562 1563 1563 1564 1564 1564 1565 1565 1566 1567 1567 1568 1569 1569 1570 1571 1572 1572 1573 1574 1575
1555 1555 1556 1556 1556 1557 1557 1557 1557 1558 1558 1559 1559 1559 1559 1558 1559 1559 1560 1560 1560 1561 1561 1560 1561 1562 1562 1562 1563 1563 1563 1564 1564 1565 1565 1566 1567 1568 1569 1569 1570 1571 1572
1554 1555 1555 1555 1555 1556 1556 1556 1556 1556 1557 1557 1557 1557 1557 1557 1557 1557 1557 1558 1558 1559 1559 1558 1559 1559 1559 1560 1560 1560 1560 1561 1561 1561 1562 1563 1563 1564 1565 1566 1566 1567 1568
1554 1554 1554 1554 1554 1555 1554 1554 1554 1554 1555 1555 1556 1555 1555 1555 1555 1555 1555 1556 1556 1557 1557 1557 1557 1557 1556 1557 1557 1557 1557 1557 1558 1558 1559 1560 1560 1560 1561 1562 1562 1563 1564
1553 1553 1554 1553 1553 1554 1553 1553 1553 1553 1553 1553 1554 1554 1554 1554 1554 1553 1554 1554 1555 1555 1555 1554 1554 1555 1555 1554 1554 1554 1554 1555 1555 1555 1556 1556 1557 1557 1558 1558 1558 1559 1560
1553 1554 1553 1553 1553 1553 1552 1552 1552 1552 1552 1552 1553 1553 1553 1554 1552 1553 1552 1552 1553 1553 1553 1553 1552 1552 1553 1553 1552 1552 1552 1552 1552 1552 1553 1553 1553 1554 1554 1554 1555 1556 1556
1553 1553 1552 1553 1552 1552 1552 1551 1551 1551 1551 1551 1551 1552 1551 1551 1551 1552 1551 1551 1551 1551 1551 1551 1551 1551 1550 1550 1550 1549 1549 1549 1549 1550 1550 1550 1550 1550 1550 1551 1551 1552 1552
1553 1553 1552 1552 1551 1552 1551 1550 1550 1549 1549 1549 1549 1549 1550 1549 1550 1550 1551 1550 1550 1550 1550 1550 1550 1549 1549 1548 1548 1547 1547 1547 1547 1547 1547 1547 1547 1547 1547 1547 1548 1548 1548
1552 1552 1552 1551 1551 1550 1550 1549 1548 1548 1548 1548 1548 1547 1547 1547 1548 1548 1548 1549 1548 1548 1548 1549 1548 1548 1547 1547 1546 1546 1546 1546 1545 1545 1545 1544 1544 1544 1544 1544 1544 1544 1544
1553 1552 1551 1550 1550 1549 1548 1547 1547 1546 1546 1545 1545 1545 1545 1545 1545 1546 1546 1546 1547 1548 1547 1547 1547 1547 1546 1546 1545 1545 1545 1544 1544 1543 1543 1542 1542 1541 1541 1541 1542 1541 1541
1553 1551 1551 1549 1549 1548 1547 1546 1546 1545 1544 1543 1543 1543 1543 1543 1543 1544 1544 1545 1546 1546 1546 1546 1546 1546 1546 1545 1545 1544 1543 1543 1542 1542 1541 1541 1540 1540 1539 1539 1539 1539 1539
1552 1550 1549 1548 1548 1547 1546 1545 1545 1544 1543 1542 1542 1542 1542 1542 1542 1542 1543 1543 1544 1545 1546 1546 1546 1546 1546 1545 1544 1544 1543 1543 1542 1541 1541 1540 1540 1539 1539 1538 1538 1537 1537
1551 1549 1549 1548 1547 1546 1545 1544 1544 1543 1542 1542 1541 1541 1541 1541 1541 1541 1542 1542 1543 1544 1545 1546 1546 1546 1546 1545 1545 1544 1544 1543 1543 1542 1541 1540 1540 1539 1538 1538 1537 1537 1537
1549 1549 1548 1547 1546 1545 1544 1544 1543 1542 1541 1541 1540 1540 1539 1540 1540 1540 1540 1541 1541 1542 1543 1544 1545 1546 1546 1546 1545 1545 1544 1544 1543 1542 1542 1541 1540 1539 1539 1538 1537 1537 1536
1548 1548 1547 1547 1546 1545 1544 1543 1543 1542 1541 1541 1540 1539 1539 1539 1539 1539 1539 1540 1540 1541 1542 1543 1544 1545 1545 1546 1546 1546 1546 1545 1544 1543 1543 1542 1541 1540 1539 1539 1538 1537 1536
1548 1547 1547 1546 1546 1545 1544 1543 1543 1542 1541 1540 1540 1539 1539 1539 1538 1539 1539 1539 1540 1540 1541 1542 1544 1545 1545 1546 1546 1546 1547 1547 1545 1544 1544 1543 1542 1541 1540 1540 1538 1538 1537
1547 1547 1546 1546 1546 1545 1544 1544 1543 1542 1541 1541 1540 1539 1539 1538 1538 1538 1538 1539 1540 1540 1541 1542 1543 1544 1545 1546 1546 1547 1547 1547 1547 1546 1545 1544 1543 1542 1541 1540 1539 1538 1537
1547 1547 1546 1546 1546 1545 1545 1544 1543 1543 1542 1541 1540 1539 1539 1538 1538 1538 1539 1539 1539 1540 1541 1542 1543 1544 1545 1546 1546 1547 1548 1548 1548 1548 1546 1546 1545 1543 1542 1541 1540 1539 1539
1546 1546 1546 1546 1546 1545 1545 1544 1544 1543 1542 1541 1540 1540 1539 1538 1538 1538 1539 1539 1539 1540 1541 1542 1543 1544 1545 1546 1547 1547 1548 1548 1547 1548 1548 1547 1547 1545 1544 1543 1542 1541 1539
1545 1546 1546 1546 1546 1545 1544 1543 1543 1543 1542 1542 1541 1540 1539 1538 1538 1538 1538 1538 1539 1539 1541 1542 1543 1543 1544 1545 1546 1547 1547 1548 1548 1548 1548 1548 1547 1547 1546 1544 1543 1542 1540
1544 1545 1545 1545 1545 1544 1544 1544 1543 1543 1542 1542 1541 1540 1540 1539 1539 1539 1539 1539 1539 1539 1540 1541 1542 1543 1544 1544 1545 1546 1547 1547 1547 1547 1547 1547 1547 1547 1546 1544 1543 1542 1541
1543 1544 1544 1544 1544 1544 1544 1543 1543 1543 1542 1542 1541 1541 1540 1539 1539 1539 1540 1539 1539 1539 1540 1541 1542 1542 1543 1544 1544 1545 1545 1545 1546 1546 1547 1547 1547 1547 1547 1545 1544 1543 1542
1542 1543 1543 1544 1544 1544 1543 1543 1543 1543 1543 1542 1542 1541 1541 1540 1539 1539 1540 1540 1540 1540 1540 1540 1541 1541 1542 1543 1543 1545 1545 1545 1546 1546 1546 1547 1547 1546 1546 1545 1544 1543 1542
1540 1542 1542 1543 1543 1543 1543 1543 1543 1544 1543 1543 1542 1541 1541 1540 1540 1540 1541 1541 1540 1541 1542 1541 1541 1541 1542 1542 1543 1543 1544 1545 1545 1546 1545 1545 1545 1545 1545 1545 1544 1543 1542